Showing default

GALILEO 33 (138), 67160

Orbit data source: Space-Track

GALILEO 33 (138), 67160 is a payload satellite owned by EU SPA (ESA) that was launched on Wed, 17 Dec 2025 UTC via an ARIANE 62 launch vehicle from the French Guiana (FRGUI). Payload-class satellites include a variety of spacecraft equipped with specific instruments for various scientific and technological missions. These include communications satellites like Starlink; space stations such as the ISS; scientific satellites like the Hubble; Earth observation satellites from companies like Planet Labs, Umbra, and HawkEye 360; GPS; miniature CubeSats for education and research; and military/defense satellites.

Loading next visibility...
Identifier
67160, 2025-302A
Orbit
Active
Country
Flag of ESAESA
Related business
Manufacturer
OHB
Mission
Operational Civil Navigation
Bus & Motor
GALILEO, AOCS
Mass
733 kg wet, 660 kg dry
Launch date (UTC)
2025-12-17 (6 months ago)
Launch vehicle
ARIANE 62
Launch site
French Guiana (FRGUI)
Object type
Payload
Rocket body
Debris
Shape & HBR
Box + 2 Pan, 7.3 m
Radar Cross Section
9.223 m², Large (>1 m²)

Expand to show TLE details & history
Last TLE update: 1 day ago

TLE from 1 day ago
0 GALILEO 33 (138)
1 67160U 25302A   26170.57978300 -.00000013  00000-0  00000-0 0  9992
2 67160  54.3370 102.0625 0000767 220.2514 324.6772  1.70473973  3168
Epoch: 2026-06-19T13:54Z
TLE epoch observation values (Epoch: 2026-06-19T13:54:53.251Z)
Latitude
-4.06206°
Longitude
168.44679°
Altitude
23,221.209 km
Speed
3.67 km/s
True Right ascension
18h 59m 54s
True Declination
-4° 03' 22"
Sunlit
Object was in daylight at epoch
Visualization orbit readout
Latitude
Unknown
Longitude
Unknown
Altitude
Unknown
Speed
Unknown
Apparent Right ascension
Unknown
Apparent Declination
Unknown
Sunlit
N/A
Visualization observer readout
Local Sidereal Time
07:22:52
Azimuth
Unknown
Elevation
Unknown
Doppler factor
Unknown
Orbital elements
Apogee altitude
23,224.489 km
Perigee altitude
23,219.949 km
Semi-major axis
29,600.356 km
Eccentricity
0.00008
Inclination
54.337°
RAAN
102.0625°
Arg. of periapsis
220.2514°
True anomaly
324.67212°
Mean anomaly
324.6772°
Eccentric anomaly
324.67466°
Mean motion
0.42618 °/min
Orbital period
844.7 mins
BSTAR
0
Loading maneuver chart data...
Computing Atmospheric mass density...
Loading historical data...
Loading historical data...
Loading historical data...
Loading historical data...
Loading historical data...
Loading historical data...
Loading historical data...
Other satellites on launch #302 in the year 2025 (2025-12-17 UTC)

Documentation

Showing up to 5 results
|